Time,TemperatureF,DewpointF,PressureIn,WindDirection,WindDirectionDegrees,WindSpeedMPH,WindSpeedGustMPH,Humidity,HourlyPrecipIn,Conditions,Clouds,dailyrainin,SoftwareType,DateUTC
2013-02-15 00:00:00,1.6,-0.4,30.30,WNW,298,0.0,3.1,91,0.00,,CLR,0.00,VWS V14.01,2013-02-15 06:00:00,
2013-02-15 00:10:00,1.1,-1.2,30.30,WNW,298,0.0,1.0,90,0.00,,CLR,0.00,VWS V14.01,2013-02-15 06:10:00,
2013-02-15 00:15:00,1.3,-0.7,30.30,WNW,298,1.0,2.1,91,0.00,,CLR,0.00,VWS V14.01,2013-02-15 06:15:00,
2013-02-15 00:20:00,1.8,-0.2,30.30,WNW,286,0.0,3.1,91,0.00,,CLR,0.00,VWS V14.01,2013-02-15 06:20:00,
2013-02-15 00:25:00,1.8,-0.2,30.30,West,275,3.0,3.1,91,0.00,,CLR,0.00,VWS V14.01,2013-02-15 06:25:00,
2013-02-15 00:30:00,1.5,-0.5,30.30,West,265,3.0,4.2,91,0.00,,CLR,0.00,VWS V14.01,2013-02-15 06:30:00,
2013-02-15 00:35:00,1.0,-1.3,30.30,West,265,2.0,4.2,90,0.00,,CLR,0.00,VWS V14.01,2013-02-15 06:35:00,
2013-02-15 00:40:00,0.7,-1.6,30.30,West,266,0.0,4.2,90,0.00,,CLR,0.00,VWS V14.01,2013-02-15 06:40:00,
2013-02-15 00:45:00,0.8,-1.2,30.30,WNW,284,2.0,5.2,91,0.00,,CLR,0.00,VWS V14.01,2013-02-15 06:45:00,
2013-02-15 00:50:00,1.2,-0.8,30.30,West,261,1.0,4.2,91,0.00,,CLR,0.00,VWS V14.01,2013-02-15 06:50:00,
2013-02-15 00:55:00,1.9,0.1,30.31,WNW,292,0.0,4.2,92,0.00,,CLR,0.00,VWS V14.01,2013-02-15 06:55:00,
2013-02-15 01:00:00,2.3,0.5,30.31,WNW,282,1.0,2.1,92,0.00,,CLR,0.00,VWS V14.01,2013-02-15 07:00:00,
2013-02-15 01:05:00,2.4,0.3,30.31,WNW,287,0.0,2.1,91,0.00,,CLR,0.00,VWS V14.01,2013-02-15 07:05:00,
2013-02-15 01:10:00,2.6,0.6,30.31,West,281,0.0,2.1,91,0.00,,CLR,0.00,VWS V14.01,2013-02-15 07:10:00,
2013-02-15 01:15:00,2.8,0.8,30.31,West,278,0.0,2.1,91,0.00,,CLR,0.00,VWS V14.01,2013-02-15 07:15:00,
2013-02-15 01:20:00,2.9,0.9,30.31,West,281,0.0,1.0,91,0.00,,CLR,0.00,VWS V14.01,2013-02-15 07:20:00,
2013-02-15 01:25:00,3.1,1.0,30.31,WNW,294,0.0,3.1,91,0.00,,CLR,0.00,VWS V14.01,2013-02-15 07:25:00,
2013-02-15 01:30:00,3.3,1.2,30.31,WNW,286,0.0,2.1,91,0.00,,CLR,0.00,VWS V14.01,2013-02-15 07:30:00,
2013-02-15 01:35:00,3.3,1.2,30.31,WNW,286,0.0,0.0,91,0.00,,CLR,0.00,VWS V14.01,2013-02-15 07:35:00,
2013-02-15 01:40:00,3.4,1.3,30.31,WNW,288,0.0,2.1,91,0.00,,CLR,0.00,VWS V14.01,2013-02-15 07:40:00,
2013-02-15 01:45:00,3.6,1.5,30.31,WNW,288,0.0,0.0,91,0.00,,BKN085,0.00,VWS V14.01,2013-02-15 07:45:00,
2013-02-15 01:50:00,3.8,1.7,30.31,WNW,288,0.0,0.0,91,0.00,,BKN085,0.00,VWS V14.01,2013-02-15 07:50:00,
2013-02-15 01:55:00,3.7,1.6,30.31,WNW,288,0.0,0.0,91,0.00,,BKN085,0.00,VWS V14.01,2013-02-15 07:55:00,
2013-02-15 02:00:00,3.5,1.2,30.31,WNW,288,0.0,0.0,90,0.00,,BKN085,0.00,VWS V14.01,2013-02-15 08:00:00,
2013-02-15 02:05:00,3.1,0.8,30.31,WNW,288,0.0,0.0,90,0.00,,BKN075,0.00,VWS V14.01,2013-02-15 08:05:00,
2013-02-15 02:10:00,2.9,0.6,30.31,WNW,288,0.0,0.0,90,0.00,,BKN075,0.00,VWS V14.01,2013-02-15 08:10:00,
2013-02-15 02:15:00,2.4,-0.1,30.31,WNW,288,0.0,0.0,89,0.00,,BKN075,0.00,VWS V14.01,2013-02-15 08:15:00,
2013-02-15 02:20:00,1.9,-0.6,30.31,WNW,288,0.0,0.0,89,0.00,,BKN075,0.00,VWS V14.01,2013-02-15 08:20:00,
2013-02-15 02:25:00,1.5,-1.0,30.31,WNW,288,0.0,0.0,89,0.00,,SCT075,0.00,VWS V14.01,2013-02-15 08:25:00,
2013-02-15 02:30:00,1.4,-0.9,30.31,WNW,288,0.0,0.0,90,0.00,,SCT075,0.00,VWS V14.01,2013-02-15 08:30:00,
2013-02-15 02:35:00,1.3,-1.0,30.32,WNW,288,0.0,0.0,90,0.00,,SCT075,0.00,VWS V14.01,2013-02-15 08:35:00,
2013-02-15 02:40:00,1.0,-1.3,30.32,WNW,288,0.0,1.0,90,0.00,,SCT075,0.00,VWS V14.01,2013-02-15 08:40:00,
2013-02-15 02:45:00,0.9,-1.4,30.32,WNW,288,0.0,0.0,90,0.00,,CLR,0.00,VWS V14.01,2013-02-15 08:45:00,
2013-02-15 02:50:00,1.0,-1.3,30.32,WNW,290,1.0,3.1,90,0.00,,CLR,0.00,VWS V14.01,2013-02-15 08:50:00,
2013-02-15 02:55:00,0.9,-1.4,30.32,West,280,0.0,2.1,90,0.00,,CLR,0.00,VWS V14.01,2013-02-15 08:55:00,
2013-02-15 03:00:00,0.8,-1.5,30.32,West,274,0.0,2.1,90,0.00,,CLR,0.00,VWS V14.01,2013-02-15 09:00:00,
2013-02-15 03:05:00,0.7,-1.6,30.32,West,274,0.0,1.0,90,0.00,,CLR,0.00,VWS V14.01,2013-02-15 09:05:00,
2013-02-15 03:10:00,0.5,-1.8,30.32,West,274,0.0,1.0,90,0.00,,CLR,0.00,VWS V14.01,2013-02-15 09:10:00,
2013-02-15 03:15:00,0.4,-1.9,30.32,West,274,0.0,0.0,90,0.00,,CLR,0.00,VWS V14.01,2013-02-15 09:15:00,
2013-02-15 03:20:00,0.5,-1.8,30.32,West,274,0.0,2.1,90,0.00,,CLR,0.00,VWS V14.01,2013-02-15 09:20:00,
2013-02-15 03:25:00,0.7,-1.3,30.32,West,274,0.0,1.0,91,0.00,,SCT037,0.00,VWS V14.01,2013-02-15 09:25:00,
2013-02-15 03:30:00,1.0,-1.0,30.32,West,274,2.0,2.1,91,0.00,,SCT037,0.00,VWS V14.01,2013-02-15 09:30:00,
2013-02-15 03:35:00,1.0,-1.3,30.32,West,275,0.0,2.1,90,0.00,,SCT037,0.00,VWS V14.01,2013-02-15 09:35:00,
2013-02-15 03:40:00,1.0,-1.3,30.32,West,275,0.0,0.0,90,0.00,,SCT037,0.00,VWS V14.01,2013-02-15 09:40:00,
2013-02-15 03:45:00,1.1,-0.9,30.32,West,275,0.0,1.0,91,0.00,,SCT037,0.00,VWS V14.01,2013-02-15 09:45:00,
2013-02-15 03:50:00,1.2,-0.8,30.32,West,275,0.0,0.0,91,0.00,,SCT037,0.00,VWS V14.01,2013-02-15 09:50:00,
2013-02-15 03:55:00,1.3,-0.7,30.32,West,275,0.0,0.0,91,0.00,,SCT037,0.00,VWS V14.01,2013-02-15 09:55:00,
2013-02-15 04:00:00,1.3,-0.7,30.33,West,275,0.0,0.0,91,0.00,,SCT037,0.00,VWS V14.01,2013-02-15 10:00:00,
2013-02-15 04:05:00,1.3,-0.7,30.33,West,275,0.0,0.0,91,0.00,,SCT037,0.00,VWS V14.01,2013-02-15 10:05:00,
2013-02-15 04:10:00,1.3,-0.7,30.33,West,275,0.0,0.0,91,0.00,,SCT037,0.00,VWS V14.01,2013-02-15 10:10:00,
2013-02-15 04:15:00,1.3,-0.7,30.33,West,275,0.0,0.0,91,0.00,,SCT037,0.00,VWS V14.01,2013-02-15 10:15:00,
2013-02-15 04:20:00,1.9,-0.1,30.33,West,275,0.0,2.1,91,0.00,,SCT037,0.00,VWS V14.01,2013-02-15 10:20:00,
2013-02-15 04:25:00,1.4,-0.9,30.33,West,275,0.0,0.0,90,0.00,,OVC039,0.00,VWS V14.01,2013-02-15 10:25:00,
2013-02-15 04:30:00,1.0,-1.5,30.33,West,275,0.0,1.0,89,0.00,,OVC039,0.00,VWS V14.01,2013-02-15 10:30:00,
2013-02-15 04:35:00,0.8,-1.5,30.33,West,275,0.0,0.0,90,0.00,,OVC039,0.00,VWS V14.01,2013-02-15 10:35:00,
2013-02-15 04:40:00,0.7,-1.6,30.33,West,275,0.0,1.0,90,0.00,,OVC039,0.00,VWS V14.01,2013-02-15 10:40:00,
2013-02-15 04:45:00,0.6,-1.7,30.34,West,275,0.0,0.0,90,0.00,,BKN041,0.00,VWS V14.01,2013-02-15 10:45:00,
2013-02-15 04:50:00,0.6,-1.7,30.34,West,275,0.0,0.0,90,0.00,,BKN041,0.00,VWS V14.01,2013-02-15 10:50:00,
2013-02-15 04:55:00,0.5,-1.8,30.34,West,275,0.0,0.0,90,0.00,,BKN041,0.00,VWS V14.01,2013-02-15 10:55:00,
2013-02-15 05:00:00,0.5,-1.8,30.34,West,275,0.0,0.0,90,0.00,,BKN041,0.00,VWS V14.01,2013-02-15 11:00:00,
2013-02-15 05:05:00,0.3,-2.0,30.34,West,275,0.0,0.0,90,0.00,,CLR,0.00,VWS V14.01,2013-02-15 11:05:00,
2013-02-15 05:10:00,0.3,-2.0,30.34,West,276,0.0,0.0,90,0.00,,CLR,0.00,VWS V14.01,2013-02-15 11:10:00,
2013-02-15 05:15:00,0.2,-1.8,30.34,West,276,0.0,2.1,91,0.00,,CLR,0.00,VWS V14.01,2013-02-15 11:15:00,
2013-02-15 05:20:00,0.3,-1.7,30.34,West,276,0.0,2.1,91,0.00,,CLR,0.00,VWS V14.01,2013-02-15 11:20:00,
2013-02-15 05:25:00,0.4,-1.6,30.34,WNW,283,1.0,1.0,91,0.00,,CLR,0.00,VWS V14.01,2013-02-15 11:25:00,
2013-02-15 05:30:00,0.3,-1.7,30.34,WNW,283,0.0,2.1,91,0.00,,CLR,0.00,VWS V14.01,2013-02-15 11:30:00,
2013-02-15 05:35:00,0.2,-1.8,30.34,WNW,283,0.0,0.0,91,0.00,,CLR,0.00,VWS V14.01,2013-02-15 11:35:00,
2013-02-15 05:40:00,0.1,-2.0,30.35,WNW,283,0.0,1.0,91,0.00,,CLR,0.00,VWS V14.01,2013-02-15 11:40:00,
2013-02-15 05:50:00,-0.4,-2.4,30.35,WNW,283,0.0,0.0,91,0.00,,CLR,0.00,VWS V14.01,2013-02-15 11:50:00,
2013-02-15 05:55:00,-0.4,-2.4,30.35,WNW,283,0.0,0.0,91,0.00,,CLR,0.00,VWS V14.01,2013-02-15 11:55:00,
2013-02-15 06:00:00,-0.5,-2.5,30.35,WNW,283,0.0,0.0,91,0.00,,CLR,0.00,VWS V14.01,2013-02-15 12:00:00,
2013-02-15 06:05:00,-0.6,-2.8,30.35,WNW,283,0.0,0.0,90,0.00,,CLR,0.00,VWS V14.01,2013-02-15 12:05:00,
2013-02-15 06:10:00,-0.6,-2.6,30.35,WNW,283,0.0,0.0,91,0.00,,CLR,0.00,VWS V14.01,2013-02-15 12:10:00,
2013-02-15 06:15:00,-0.7,-2.7,30.35,WNW,283,0.0,0.0,91,0.00,,CLR,0.00,VWS V14.01,2013-02-15 12:15:00,
2013-02-15 06:20:00,-0.7,-2.7,30.35,WNW,298,0.0,0.0,91,0.00,,CLR,0.00,VWS V14.01,2013-02-15 12:20:00,
2013-02-15 06:25:00,-0.7,-2.7,30.35,NW,311,1.0,3.1,91,0.00,,CLR,0.00,VWS V14.01,2013-02-15 12:25:00,
2013-02-15 06:30:00,-0.3,-2.3,30.36,NW,304,0.0,3.1,91,0.00,,CLR,0.00,VWS V14.01,2013-02-15 12:30:00,
2013-02-15 06:35:00,-0.2,-2.2,30.36,NW,309,0.0,2.1,91,0.00,,CLR,0.00,VWS V14.01,2013-02-15 12:35:00,
2013-02-15 06:40:00,-0.3,-2.3,30.36,NW,309,0.0,0.0,91,0.00,,CLR,0.00,VWS V14.01,2013-02-15 12:40:00,
2013-02-15 06:45:00,-0.3,-2.3,30.36,NW,309,0.0,0.0,91,0.00,,CLR,0.00,VWS V14.01,2013-02-15 12:45:00,
2013-02-15 06:50:00,-0.3,-2.3,30.36,NW,319,0.0,2.1,91,0.00,,CLR,0.00,VWS V14.01,2013-02-15 12:50:00,
2013-02-15 06:55:00,-0.4,-2.4,30.36,NW,313,2.0,2.1,91,0.00,,CLR,0.00,VWS V14.01,2013-02-15 12:55:00,
2013-02-15 07:00:00,-0.3,-2.3,30.36,NW,313,0.0,2.1,91,0.00,,CLR,0.00,VWS V14.01,2013-02-15 13:00:00,
2013-02-15 07:05:00,-0.3,-2.3,30.37,NW,313,0.0,2.1,91,0.00,,CLR,0.00,VWS V14.01,2013-02-15 13:05:00,
2013-02-15 07:10:00,-0.4,-2.4,30.37,NW,313,0.0,2.1,91,0.00,,CLR,0.00,VWS V14.01,2013-02-15 13:10:00,
2013-02-15 07:15:00,-0.5,-2.5,30.37,NW,313,0.0,2.1,91,0.00,,CLR,0.00,VWS V14.01,2013-02-15 13:15:00,
2013-02-15 07:20:00,-0.6,-2.8,30.37,NW,313,0.0,0.0,90,0.00,,CLR,0.00,VWS V14.01,2013-02-15 13:20:00,
2013-02-15 07:25:00,-0.8,-3.0,30.37,NW,313,0.0,0.0,90,0.00,,CLR,0.00,VWS V14.01,2013-02-15 13:25:00,
2013-02-15 07:30:00,-1.1,-3.3,30.37,NW,313,0.0,0.0,90,0.00,,CLR,0.00,VWS V14.01,2013-02-15 13:30:00,
2013-02-15 07:35:00,-1.5,-4.0,30.37,NW,313,0.0,0.0,89,0.00,,CLR,0.00,VWS V14.01,2013-02-15 13:35:00,
2013-02-15 07:40:00,-1.8,-4.3,30.37,NW,313,0.0,0.0,89,0.00,,CLR,0.00,VWS V14.01,2013-02-15 13:40:00,
2013-02-15 07:45:00,-1.9,-4.4,30.38,NW,313,0.0,0.0,89,0.00,,CLR,0.00,VWS V14.01,2013-02-15 13:45:00,
2013-02-15 07:50:00,-1.7,-3.9,30.38,NW,313,0.0,0.0,90,0.00,,CLR,0.00,VWS V14.01,2013-02-15 13:50:00,
2013-02-15 07:55:00,-1.7,-3.9,30.38,NW,313,0.0,0.0,90,0.00,,CLR,0.00,VWS V14.01,2013-02-15 13:55:00,
2013-02-15 08:00:00,-1.7,-3.9,30.38,NW,313,0.0,0.0,90,0.00,,CLR,0.00,VWS V14.01,2013-02-15 14:00:00,
2013-02-15 08:05:00,-1.7,-3.9,30.39,NW,313,0.0,0.0,90,0.00,,,0.00,VWS V14.01,2013-02-15 14:05:00,
2013-02-15 08:10:00,-1.7,-3.9,30.38,NW,313,0.0,0.0,90,0.00,,,0.00,VWS V14.01,2013-02-15 14:10:00,
2013-02-15 08:20:00,-0.4,-2.9,30.39,NW,313,0.0,0.0,89,0.00,,,0.00,VWS V14.01,2013-02-15 14:20:00,
2013-02-15 08:30:00,0.2,-2.1,30.39,NW,313,0.0,0.0,90,0.00,,CLR,0.00,VWS V14.01,2013-02-15 14:30:00,
2013-02-15 08:35:00,0.4,-2.1,30.40,NW,313,0.0,0.0,89,0.00,,CLR,0.00,VWS V14.01,2013-02-15 14:35:00,
2013-02-15 08:40:00,0.6,-1.9,30.39,NW,313,0.0,0.0,89,0.00,,CLR,0.00,VWS V14.01,2013-02-15 14:40:00,
2013-02-15 08:45:00,1.1,-1.2,30.40,NW,313,0.0,0.0,90,0.00,,CLR,0.00,VWS V14.01,2013-02-15 14:45:00,
2013-02-15 08:50:00,1.4,-0.9,30.40,NW,313,0.0,2.1,90,0.00,,CLR,0.00,VWS V14.01,2013-02-15 14:50:00,
2013-02-15 08:55:00,1.5,-1.0,30.40,NW,313,0.0,0.0,89,0.00,,CLR,0.00,VWS V14.01,2013-02-15 14:55:00,
2013-02-15 09:00:00,1.5,-1.0,30.40,NW,313,1.0,2.1,89,0.00,,CLR,0.00,VWS V14.01,2013-02-15 15:00:00,
2013-02-15 09:10:00,1.9,-0.4,30.40,NW,313,0.0,0.0,90,0.00,,CLR,0.00,VWS V14.01,2013-02-15 15:10:00,
2013-02-15 09:15:00,2.0,-0.5,30.41,NW,313,0.0,0.0,89,0.00,,CLR,0.00,VWS V14.01,2013-02-15 15:15:00,
2013-02-15 09:20:00,2.0,-0.5,30.41,NW,313,0.0,0.0,89,0.00,,CLR,0.00,VWS V14.01,2013-02-15 15:20:00,
2013-02-15 09:30:00,2.5,0.2,30.41,NW,313,0.0,0.0,90,0.00,,CLR,0.00,VWS V14.01,2013-02-15 15:30:00,
2013-02-15 09:35:00,2.7,0.4,30.41,NW,313,0.0,0.0,90,0.00,,CLR,0.00,VWS V14.01,2013-02-15 15:35:00,
2013-02-15 09:45:00,3.5,1.2,30.41,NW,313,0.0,0.0,90,0.00,,CLR,0.00,VWS V14.01,2013-02-15 15:45:00,
2013-02-15 09:50:00,3.7,1.4,30.41,NW,313,0.0,0.0,90,0.00,,CLR,0.00,VWS V14.01,2013-02-15 15:50:00,
2013-02-15 10:00:00,3.7,1.4,30.42,NW,313,0.0,1.0,90,0.00,,CLR,0.00,VWS V14.01,2013-02-15 16:00:00,
2013-02-15 10:05:00,3.8,1.5,30.42,NW,312,0.0,0.0,90,0.00,,CLR,0.00,VWS V14.01,2013-02-15 16:05:00,
2013-02-15 10:15:00,4.4,2.1,30.42,NW,314,0.0,0.0,90,0.00,,CLR,0.00,VWS V14.01,2013-02-15 16:15:00,
2013-02-15 10:25:00,4.6,2.3,30.42,NW,321,0.0,4.2,90,0.00,,CLR,0.00,VWS V14.01,2013-02-15 16:25:00,
2013-02-15 10:30:00,4.9,2.6,30.42,NW,317,0.0,0.0,90,0.00,,CLR,0.00,VWS V14.01,2013-02-15 16:30:00,
2013-02-15 10:35:00,5.3,3.0,30.41,NW,317,0.0,0.0,90,0.00,,CLR,0.00,VWS V14.01,2013-02-15 16:35:00,
2013-02-15 10:45:00,5.5,2.9,30.41,NW,315,0.0,0.0,89,0.00,,CLR,0.00,VWS V14.01,2013-02-15 16:45:00,
2013-02-15 10:55:00,5.6,3.0,30.42,NW,306,0.0,2.1,89,0.00,,CLR,0.00,VWS V14.01,2013-02-15 16:55:00,
2013-02-15 11:00:00,6.0,3.4,30.42,West,269,0.0,3.1,89,0.00,,CLR,0.00,VWS V14.01,2013-02-15 17:00:00,
2013-02-15 11:10:00,6.3,3.7,30.42,West,261,0.0,4.2,89,0.00,,CLR,0.00,VWS V14.01,2013-02-15 17:10:00,
2013-02-15 11:15:00,6.5,3.9,30.43,WNW,294,2.0,3.1,89,0.00,,CLR,0.00,VWS V14.01,2013-02-15 17:15:00,
2013-02-15 11:20:00,6.6,4.0,30.43,West,263,0.0,4.2,89,0.00,,CLR,0.00,VWS V14.01,2013-02-15 17:20:00,
2013-02-15 11:30:00,7.6,5.3,30.43,NW,315,0.0,2.1,90,0.00,,CLR,0.00,VWS V14.01,2013-02-15 17:30:00,
2013-02-15 11:35:00,8.0,5.4,30.43,West,269,0.0,3.1,89,0.00,,CLR,0.00,VWS V14.01,2013-02-15 17:35:00,
2013-02-15 11:40:00,8.1,5.5,30.43,WSW,248,1.0,2.1,89,0.00,,CLR,0.00,VWS V14.01,2013-02-15 17:40:00,
2013-02-15 11:45:00,8.6,6.0,30.43,West,261,0.0,3.1,89,0.00,,CLR,0.00,VWS V14.01,2013-02-15 17:45:00,
2013-02-15 11:55:00,9.4,6.5,30.43,NW,313,0.0,2.1,88,0.00,,CLR,0.00,VWS V14.01,2013-02-15 17:55:00,
2013-02-15 12:00:00,9.6,6.7,30.43,WNW,300,0.0,1.0,88,0.00,,CLR,0.00,VWS V14.01,2013-02-15 18:00:00,
2013-02-15 12:05:00,9.9,7.0,30.43,WNW,300,0.0,0.0,88,0.00,,CLR,0.00,VWS V14.01,2013-02-15 18:05:00,
2013-02-15 12:10:00,10.2,7.1,30.43,WNW,300,0.0,1.0,87,0.00,,CLR,0.00,VWS V14.01,2013-02-15 18:10:00,
2013-02-15 12:15:00,10.4,7.3,30.43,WNW,299,0.0,3.1,87,0.00,,CLR,0.00,VWS V14.01,2013-02-15 18:15:00,
2013-02-15 12:20:00,10.5,7.4,30.42,NW,319,0.0,2.1,87,0.00,,CLR,0.00,VWS V14.01,2013-02-15 18:20:00,
2013-02-15 12:25:00,10.5,7.1,30.42,NW,311,0.0,4.2,86,0.00,,CLR,0.00,VWS V14.01,2013-02-15 18:25:00,
2013-02-15 12:30:00,10.3,6.9,30.42,NW,320,0.0,4.2,86,0.00,,CLR,0.00,VWS V14.01,2013-02-15 18:30:00,
2013-02-15 12:35:00,10.5,7.4,30.42,NW,311,2.0,2.1,87,0.00,,CLR,0.00,VWS V14.01,2013-02-15 18:35:00,
2013-02-15 12:45:00,10.8,7.4,30.42,NW,315,2.0,4.2,86,0.00,,CLR,0.00,VWS V14.01,2013-02-15 18:45:00,
2013-02-15 12:50:00,11.0,7.6,30.42,WNW,287,0.0,2.1,86,0.00,,CLR,0.00,VWS V14.01,2013-02-15 18:50:00,
2013-02-15 12:55:00,11.4,8.3,30.42,NW,314,0.0,0.0,87,0.00,,CLR,0.00,VWS V14.01,2013-02-15 18:55:00,
2013-02-15 13:00:00,11.7,8.3,30.42,WNW,303,0.0,3.1,86,0.00,,CLR,0.00,VWS V14.01,2013-02-15 19:00:00,
2013-02-15 13:10:00,12.2,8.8,30.42,WNW,301,0.0,0.0,86,0.00,,CLR,0.00,VWS V14.01,2013-02-15 19:10:00,
2013-02-15 13:20:00,12.5,9.1,30.42,WNW,298,1.0,3.1,86,0.00,,CLR,0.00,VWS V14.01,2013-02-15 19:20:00,
2013-02-15 13:25:00,12.7,9.3,30.42,NW,304,0.0,2.1,86,0.00,,CLR,0.00,VWS V14.01,2013-02-15 19:25:00,
2013-02-15 13:30:00,12.8,9.1,30.42,WNW,283,0.0,3.1,85,0.00,,CLR,0.00,VWS V14.01,2013-02-15 19:30:00,
2013-02-15 13:35:00,13.0,9.3,30.42,WNW,294,0.0,2.1,85,0.00,,CLR,0.00,VWS V14.01,2013-02-15 19:35:00,
2013-02-15 13:40:00,13.1,9.1,30.42,WNW,285,0.0,4.2,84,0.00,,CLR,0.00,VWS V14.01,2013-02-15 19:40:00,
2013-02-15 13:45:00,13.0,9.0,30.42,NW,317,0.0,3.1,84,0.00,,CLR,0.00,VWS V14.01,2013-02-15 19:45:00,
2013-02-15 13:50:00,13.1,9.1,30.42,NW,304,0.0,4.2,84,0.00,,CLR,0.00,VWS V14.01,2013-02-15 19:50:00,
2013-02-15 13:55:00,13.3,9.6,30.42,NW,310,0.0,2.1,85,0.00,,CLR,0.00,VWS V14.01,2013-02-15 19:55:00,
2013-02-15 14:00:00,13.6,9.6,30.42,WNW,294,0.0,2.1,84,0.00,,CLR,0.00,VWS V14.01,2013-02-15 20:00:00,
2013-02-15 14:10:00,13.7,9.5,30.42,WNW,294,0.0,4.2,83,0.00,,CLR,0.00,VWS V14.01,2013-02-15 20:10:00,
2013-02-15 14:15:00,13.9,9.9,30.41,West,280,0.0,2.1,84,0.00,,CLR,0.00,VWS V14.01,2013-02-15 20:15:00,
2013-02-15 14:20:00,14.1,9.9,30.41,WNW,290,0.0,4.2,83,0.00,,CLR,0.00,VWS V14.01,2013-02-15 20:20:00,
2013-02-15 14:25:00,14.1,9.9,30.41,NW,321,0.0,3.1,83,0.00,,CLR,0.00,VWS V14.01,2013-02-15 20:25:00,
2013-02-15 14:30:00,14.4,10.1,30.41,WNW,287,0.0,3.1,83,0.00,,CLR,0.00,VWS V14.01,2013-02-15 20:30:00,
2013-02-15 14:35:00,14.5,10.0,30.41,NW,317,0.0,0.0,82,0.00,,CLR,0.00,VWS V14.01,2013-02-15 20:35:00,
2013-02-15 14:40:00,14.7,10.2,30.42,WNW,288,0.0,0.0,82,0.00,,CLR,0.00,VWS V14.01,2013-02-15 20:40:00,
2013-02-15 14:45:00,14.9,10.4,30.42,WNW,288,0.0,0.0,82,0.00,,CLR,0.00,VWS V14.01,2013-02-15 20:45:00,
2013-02-15 14:50:00,15.2,10.6,30.41,NW,306,0.0,0.0,82,0.00,,CLR,0.00,VWS V14.01,2013-02-15 20:50:00,
2013-02-15 14:55:00,15.2,10.4,30.41,WNW,289,0.0,0.0,81,0.00,,CLR,0.00,VWS V14.01,2013-02-15 20:55:00,
2013-02-15 15:00:00,15.2,10.6,30.42,West,281,0.0,3.1,82,0.00,,CLR,0.00,VWS V14.01,2013-02-15 21:00:00,
2013-02-15 15:10:00,15.0,10.2,30.42,WNW,290,0.0,1.0,81,0.00,,CLR,0.00,VWS V14.01,2013-02-15 21:10:00,
2013-02-15 15:15:00,14.9,10.4,30.42,NW,313,0.0,1.0,82,0.00,,CLR,0.00,VWS V14.01,2013-02-15 21:15:00,
2013-02-15 15:20:00,14.9,10.4,30.42,NW,315,0.0,1.0,82,0.00,,CLR,0.00,VWS V14.01,2013-02-15 21:20:00,
2013-02-15 15:25:00,14.9,10.4,30.42,WNW,295,0.0,0.0,82,0.00,,CLR,0.00,VWS V14.01,2013-02-15 21:25:00,
2013-02-15 15:30:00,15.0,10.5,30.42,WNW,295,0.0,0.0,82,0.00,,CLR,0.00,VWS V14.01,2013-02-15 21:30:00,
2013-02-15 15:35:00,15.0,10.5,30.42,WNW,284,0.0,0.0,82,0.00,,CLR,0.00,VWS V14.01,2013-02-15 21:35:00,
2013-02-15 15:40:00,15.0,10.5,30.41,WNW,296,0.0,2.1,82,0.00,,CLR,0.00,VWS V14.01,2013-02-15 21:40:00,
2013-02-15 15:45:00,15.0,10.2,30.41,WNW,285,0.0,2.1,81,0.00,,CLR,0.00,VWS V14.01,2013-02-15 21:45:00,
2013-02-15 15:50:00,14.9,10.1,30.42,NW,313,0.0,1.0,81,0.00,,CLR,0.00,VWS V14.01,2013-02-15 21:50:00,
2013-02-15 15:55:00,14.6,9.8,30.42,NW,306,0.0,4.2,81,0.00,,CLR,0.00,VWS V14.01,2013-02-15 21:55:00,
2013-02-15 16:00:00,14.4,9.6,30.42,WNW,296,4.0,4.2,81,0.00,,CLR,0.00,VWS V14.01,2013-02-15 22:00:00,
2013-02-15 16:05:00,14.2,9.4,30.42,NW,304,0.0,1.0,81,0.00,,CLR,0.00,VWS V14.01,2013-02-15 22:05:00,
2013-02-15 16:10:00,14.1,9.6,30.42,WNW,292,0.0,2.1,82,0.00,,CLR,0.00,VWS V14.01,2013-02-15 22:10:00,
2013-02-15 16:15:00,13.9,9.4,30.42,WNW,294,0.0,4.2,82,0.00,,CLR,0.00,VWS V14.01,2013-02-15 22:15:00,
2013-02-15 16:20:00,13.6,9.4,30.42,WNW,295,0.0,3.1,83,0.00,,CLR,0.00,VWS V14.01,2013-02-15 22:20:00,
2013-02-15 16:25:00,13.4,9.2,30.42,WNW,295,0.0,3.1,83,0.00,,CLR,0.00,VWS V14.01,2013-02-15 22:25:00,
2013-02-15 16:30:00,13.2,9.0,30.42,WNW,290,3.0,5.2,83,0.00,,CLR,0.00,VWS V14.01,2013-02-15 22:30:00,
2013-02-15 16:35:00,13.0,8.8,30.42,WNW,295,3.0,5.2,83,0.00,,CLR,0.00,VWS V14.01,2013-02-15 22:35:00,
2013-02-15 16:40:00,12.9,8.9,30.42,WNW,297,0.0,3.1,84,0.00,,CLR,0.00,VWS V14.01,2013-02-15 22:40:00,
2013-02-15 16:45:00,12.7,8.8,30.42,NW,311,0.0,3.1,84,0.00,,CLR,0.00,VWS V14.01,2013-02-15 22:45:00,
2013-02-15 16:50:00,12.4,8.4,30.42,WNW,295,0.0,0.0,84,0.00,,CLR,0.00,VWS V14.01,2013-02-15 22:50:00,
2013-02-15 16:55:00,12.1,8.2,30.42,NW,316,0.0,3.1,84,0.00,,CLR,0.00,VWS V14.01,2013-02-15 22:55:00,
2013-02-15 17:00:00,11.8,8.1,30.42,WNW,302,0.0,2.1,85,0.00,,CLR,0.00,VWS V14.01,2013-02-15 23:00:00,
2013-02-15 17:05:00,11.5,7.8,30.41,WNW,301,0.0,0.0,85,0.00,,CLR,0.00,VWS V14.01,2013-02-15 23:05:00,
2013-02-15 17:10:00,11.0,7.3,30.41,WNW,301,0.0,0.0,85,0.00,,CLR,0.00,VWS V14.01,2013-02-15 23:10:00,
2013-02-15 17:15:00,10.5,6.8,30.41,WNW,301,0.0,0.0,85,0.00,,CLR,0.00,VWS V14.01,2013-02-15 23:15:00,
2013-02-15 17:20:00,9.9,6.3,30.41,WNW,301,0.0,0.0,85,0.00,,CLR,0.00,VWS V14.01,2013-02-15 23:20:00,
2013-02-15 17:25:00,9.3,5.9,30.41,WNW,301,0.0,0.0,86,0.00,,CLR,0.00,VWS V14.01,2013-02-15 23:25:00,
2013-02-15 17:30:00,8.9,5.5,30.41,WNW,301,0.0,0.0,86,0.00,,CLR,0.00,VWS V14.01,2013-02-15 23:30:00,
2013-02-15 17:35:00,8.5,5.4,30.41,WNW,301,0.0,0.0,87,0.00,,CLR,0.00,VWS V14.01,2013-02-15 23:35:00,
2013-02-15 17:40:00,8.1,5.0,30.41,WNW,301,0.0,0.0,87,0.00,,CLR,0.00,VWS V14.01,2013-02-15 23:40:00,
2013-02-15 17:45:00,7.7,4.6,30.41,WNW,301,0.0,0.0,87,0.00,,CLR,0.00,VWS V14.01,2013-02-15 23:45:00,
2013-02-15 17:50:00,7.3,4.2,30.41,WNW,301,0.0,0.0,87,0.00,,CLR,0.00,VWS V14.01,2013-02-15 23:50:00,
2013-02-15 17:55:00,6.9,4.1,30.41,WNW,301,0.0,0.0,88,0.00,,CLR,0.00,VWS V14.01,2013-02-15 23:55:00,
2013-02-15 18:00:00,6.6,3.8,30.41,WNW,301,0.0,0.0,88,0.00,,CLR,0.00,VWS V14.01,2013-02-16 00:00:00,
2013-02-15 18:10:00,6.4,3.8,30.41,West,274,0.0,0.0,89,0.00,,CLR,0.00,VWS V14.01,2013-02-16 00:10:00,
2013-02-15 18:15:00,6.2,3.6,30.41,West,274,0.0,0.0,89,0.00,,CLR,0.00,VWS V14.01,2013-02-16 00:15:00,
2013-02-15 18:20:00,5.9,3.3,30.41,West,275,0.0,0.0,89,0.00,,CLR,0.00,VWS V14.01,2013-02-16 00:20:00,
2013-02-15 18:25:00,5.8,3.2,30.41,West,275,0.0,2.1,89,0.00,,CLR,0.00,VWS V14.01,2013-02-16 00:25:00,
2013-02-15 18:30:00,5.8,3.5,30.41,West,275,0.0,0.0,90,0.00,,CLR,0.00,VWS V14.01,2013-02-16 00:30:00,
2013-02-15 18:35:00,5.8,3.5,30.41,West,275,0.0,0.0,90,0.00,,CLR,0.00,VWS V14.01,2013-02-16 00:35:00,
2013-02-15 18:40:00,5.6,3.0,30.41,West,275,0.0,0.0,89,0.00,,CLR,0.00,VWS V14.01,2013-02-16 00:40:00,
2013-02-15 18:45:00,5.2,2.6,30.41,West,275,0.0,0.0,89,0.00,,CLR,0.00,VWS V14.01,2013-02-16 00:45:00,
2013-02-15 18:50:00,4.8,2.2,30.41,West,275,0.0,0.0,89,0.00,,CLR,0.00,VWS V14.01,2013-02-16 00:50:00,
2013-02-15 18:55:00,4.9,2.6,30.41,West,275,0.0,0.0,90,0.00,,CLR,0.00,VWS V14.01,2013-02-16 00:55:00,
2013-02-15 19:00:00,4.9,2.6,30.41,West,275,0.0,0.0,90,0.00,,CLR,0.00,VWS V14.01,2013-02-16 01:00:00,
2013-02-15 19:05:00,4.8,2.5,30.41,West,275,0.0,0.0,90,0.00,,CLR,0.00,VWS V14.01,2013-02-16 01:05:00,
2013-02-15 19:10:00,5.0,2.7,30.40,West,275,0.0,0.0,90,0.00,,CLR,0.00,VWS V14.01,2013-02-16 01:10:00,
2013-02-15 19:15:00,5.2,2.9,30.40,West,275,0.0,0.0,90,0.00,,CLR,0.00,VWS V14.01,2013-02-16 01:15:00,
2013-02-15 19:20:00,5.3,3.0,30.40,West,275,0.0,0.0,90,0.00,,CLR,0.00,VWS V14.01,2013-02-16 01:20:00,
2013-02-15 19:25:00,5.2,2.9,30.40,West,275,0.0,0.0,90,0.00,,CLR,0.00,VWS V14.01,2013-02-16 01:25:00,
2013-02-15 19:30:00,4.9,2.6,30.40,West,275,0.0,0.0,90,0.00,,CLR,0.00,VWS V14.01,2013-02-16 01:30:00,
2013-02-15 19:40:00,4.5,2.2,30.40,West,275,0.0,0.0,90,0.00,,CLR,0.00,VWS V14.01,2013-02-16 01:40:00,
2013-02-15 19:45:00,4.5,2.2,30.40,West,275,0.0,0.0,90,0.00,,SCT016,0.00,VWS V14.01,2013-02-16 01:45:00,
2013-02-15 19:50:00,4.2,1.9,30.40,West,275,0.0,0.0,90,0.00,,SCT016,0.00,VWS V14.01,2013-02-16 01:50:00,
2013-02-15 19:55:00,4.1,1.8,30.40,West,275,0.0,0.0,90,0.00,,SCT016,0.00,VWS V14.01,2013-02-16 01:55:00,
2013-02-15 20:00:00,3.8,1.5,30.39,West,275,0.0,0.0,90,0.00,,SCT016,0.00,VWS V14.01,2013-02-16 02:00:00,
2013-02-15 20:05:00,4.0,1.9,30.40,West,264,0.0,3.1,91,0.00,,,0.00,VWS V14.01,2013-02-16 02:05:00,
2013-02-15 20:10:00,4.0,1.9,30.40,West,275,1.0,2.1,91,0.00,,,0.00,VWS V14.01,2013-02-16 02:10:00,
2013-02-15 20:15:00,4.2,2.1,30.39,West,272,2.0,3.1,91,0.00,,,0.00,VWS V14.01,2013-02-16 02:15:00,
2013-02-15 20:20:00,4.2,2.1,30.40,West,277,0.0,3.1,91,0.00,,,0.00,VWS V14.01,2013-02-16 02:20:00,
2013-02-15 20:25:00,4.0,1.9,30.40,West,271,0.0,1.0,91,0.00,,,0.00,VWS V14.01,2013-02-16 02:25:00,
2013-02-15 20:30:00,3.7,1.6,30.40,West,275,1.0,1.0,91,0.00,,,0.00,VWS V14.01,2013-02-16 02:30:00,
2013-02-15 20:35:00,3.1,0.8,30.40,West,273,0.0,2.1,90,0.00,,,0.00,VWS V14.01,2013-02-16 02:35:00,
2013-02-15 20:40:00,2.6,0.3,30.40,West,277,1.0,3.1,90,0.00,,,0.00,VWS V14.01,2013-02-16 02:40:00,
2013-02-15 20:45:00,2.7,0.6,30.40,West,270,0.0,3.1,91,0.00,,,0.00,VWS V14.01,2013-02-16 02:45:00,
2013-02-15 20:50:00,3.4,1.6,30.40,West,268,0.0,2.1,92,0.00,,,0.00,VWS V14.01,2013-02-16 02:50:00,
2013-02-15 20:55:00,4.1,2.5,30.40,WSW,246,0.0,4.2,93,0.00,,,0.00,VWS V14.01,2013-02-16 02:55:00,
2013-02-15 21:00:00,4.7,3.1,30.40,WSW,253,0.0,0.0,93,0.00,,,0.00,VWS V14.01,2013-02-16 03:00:00,
2013-02-15 21:05:00,5.2,3.6,30.40,West,259,0.0,0.0,93,0.00,,,0.00,VWS V14.01,2013-02-16 03:05:00,
2013-02-15 21:10:00,5.7,4.1,30.40,WNW,283,0.0,0.0,93,0.00,,,0.00,VWS V14.01,2013-02-16 03:10:00,
2013-02-15 21:15:00,6.4,4.8,30.39,West,264,0.0,2.1,93,0.00,,,0.00,VWS V14.01,2013-02-16 03:15:00,
2013-02-15 21:20:00,7.0,5.4,30.39,West,270,0.0,2.1,93,0.00,,,0.00,VWS V14.01,2013-02-16 03:20:00,
2013-02-15 21:25:00,7.4,5.8,30.39,West,270,0.0,0.0,93,0.00,,,0.00,VWS V14.01,2013-02-16 03:25:00,
2013-02-15 21:30:00,7.7,6.1,30.39,West,279,0.0,0.0,93,0.00,,,0.00,VWS V14.01,2013-02-16 03:30:00,
2013-02-15 21:35:00,8.3,6.7,30.39,WNW,287,0.0,0.0,93,0.00,,,0.00,VWS V14.01,2013-02-16 03:35:00,
2013-02-15 21:40:00,8.9,7.5,30.39,WNW,287,0.0,0.0,94,0.00,,,0.00,VWS V14.01,2013-02-16 03:40:00,
2013-02-15 21:45:00,9.4,7.8,30.38,WNW,287,0.0,0.0,93,0.00,,,0.00,VWS V14.01,2013-02-16 03:45:00,
2013-02-15 21:50:00,9.6,8.0,30.38,West,273,0.0,0.0,93,0.00,,,0.00,VWS V14.01,2013-02-16 03:50:00,
2013-02-15 21:55:00,9.7,8.1,30.38,West,273,0.0,0.0,93,0.00,,,0.00,VWS V14.01,2013-02-16 03:55:00,
2013-02-15 22:00:00,9.8,8.2,30.38,West,273,0.0,0.0,93,0.00,,,0.00,VWS V14.01,2013-02-16 04:00:00,
2013-02-15 22:05:00,10.0,8.4,30.38,West,273,0.0,0.0,93,0.00,,,0.00,VWS V14.01,2013-02-16 04:05:00,
2013-02-15 22:10:00,10.2,8.6,30.38,West,273,0.0,0.0,93,0.00,,,0.00,VWS V14.01,2013-02-16 04:10:00,
2013-02-15 22:15:00,10.4,8.8,30.38,West,273,0.0,0.0,93,0.00,,,0.00,VWS V14.01,2013-02-16 04:15:00,
2013-02-15 22:20:00,10.6,9.0,30.37,West,273,0.0,0.0,93,0.00,,,0.00,VWS V14.01,2013-02-16 04:20:00,
2013-02-15 22:25:00,10.7,9.1,30.37,West,273,0.0,0.0,93,0.00,,,0.00,VWS V14.01,2013-02-16 04:25:00,
2013-02-15 22:30:00,10.8,9.2,30.37,West,261,0.0,0.0,93,0.00,,,0.00,VWS V14.01,2013-02-16 04:30:00,
2013-02-15 22:35:00,10.7,9.1,30.37,WNW,284,0.0,3.1,93,0.00,,,0.00,VWS V14.01,2013-02-16 04:35:00,
2013-02-15 22:40:00,10.7,9.1,30.37,WSW,242,0.0,0.0,93,0.00,,,0.00,VWS V14.01,2013-02-16 04:40:00,
2013-02-15 22:45:00,10.6,8.7,30.36,WSW,243,0.0,0.0,92,0.00,,,0.00,VWS V14.01,2013-02-16 04:45:00,
2013-02-15 22:50:00,10.7,9.1,30.36,West,263,0.0,1.0,93,0.00,,,0.00,VWS V14.01,2013-02-16 04:50:00,
2013-02-15 22:55:00,10.7,9.1,30.36,West,263,0.0,0.0,93,0.00,,,0.00,VWS V14.01,2013-02-16 04:55:00,
2013-02-15 23:00:00,10.7,9.1,30.36,West,263,0.0,0.0,93,0.00,,,0.00,VWS V14.01,2013-02-16 05:00:00,
2013-02-15 23:05:00,10.7,9.1,30.36,West,263,0.0,0.0,93,0.00,,,0.00,VWS V14.01,2013-02-16 05:05:00,
2013-02-15 23:10:00,10.8,9.2,30.36,West,263,0.0,0.0,93,0.00,,,0.00,VWS V14.01,2013-02-16 05:10:00,
2013-02-15 23:15:00,10.8,9.2,30.36,SW,222,0.0,0.0,93,0.00,,,0.00,VWS V14.01,2013-02-16 05:15:00,
2013-02-15 23:20:00,10.8,9.2,30.36,West,267,0.0,0.0,93,0.00,,,0.00,VWS V14.01,2013-02-16 05:20:00,
2013-02-15 23:25:00,10.9,9.3,30.36,West,267,0.0,0.0,93,0.00,,,0.00,VWS V14.01,2013-02-16 05:25:00,
2013-02-15 23:30:00,10.9,9.3,30.36,West,267,0.0,0.0,93,0.00,,,0.00,VWS V14.01,2013-02-16 05:30:00,
2013-02-15 23:35:00,11.0,9.4,30.35,West,273,0.0,1.0,93,0.00,,,0.00,VWS V14.01,2013-02-16 05:35:00,
2013-02-15 23:40:00,11.1,9.5,30.36,WSW,254,0.0,2.1,93,0.00,,,0.00,VWS V14.01,2013-02-16 05:40:00,
2013-02-15 23:45:00,11.1,9.5,30.35,WSW,257,0.0,0.0,93,0.00,,,0.00,VWS V14.01,2013-02-16 05:45:00,
2013-02-15 23:50:00,11.3,9.6,30.35,WNW,283,2.0,3.1,93,0.00,,,0.00,VWS V14.01,2013-02-16 05:50:00,
2013-02-15 23:55:00,11.6,9.9,30.35,WNW,288,0.0,3.1,93,0.00,,,0.00,VWS V14.01,2013-02-16 05:55:00,